GW4477 Weather Reports


time (UTC)temp
C
wind
direction
speed
KPH
gust
KPH
rain 1hr
cm
rain 24hr
cm
rain mn
cm
humidity
%
barometer
mb
20260901043009 26 221 0.0 3.2 0.00 0.00 0.00 53 1017.4
20260901041510 27 211 1.6 8.0 0.00 0.00 0.00 52 1017.4
20260901040009 27 195 0.0 6.4 0.00 0.00 0.00 51 1017.4
20260901034511 27 259 0.0 4.8 0.00 0.00 0.00 51 1017.7
20260901033016 26 256 0.0 3.2 0.00 0.00 0.00 54 1017.2
20260901031509 25 239 0.0 0.0 0.00 0.00 0.00 64 1017.1
20260901030012 25 239 0.0 3.2 0.00 0.00 0.00 67 1016.9
20260901024511 26 211 0.0 1.6 0.00 0.00 0.00 66 1016.7
20260901023013 26 211 0.0 0.0 0.00 0.00 0.00 62 1016.0
20260901021506 27 211 0.0 0.0 0.00 0.00 0.00 59 1015.6
20260901020011 27 211 0.0 0.0 0.00 0.00 0.00 58 1015.1
20260901014515 27 211 0.0 0.0 0.00 0.00 0.00 59 1014.7
20260901013004 28 211 0.0 0.0 0.00 0.00 0.00 56 1015.0
20260901011506 30 211 0.0 0.0 0.00 0.00 0.00 54 1015.0
20260901010009 31 211 0.0 0.0 0.00 0.00 0.00 50 1014.9
20260901004517 32 211 0.0 0.0 0.00 0.00 0.00 47 1014.8
20260901003016 33 211 0.0 1.6 0.00 0.00 0.00 44 1014.8
20260901001504 34 188 0.0 4.8 0.00 0.00 0.00 39 1014.6
20260901000008 34 180 3.2 6.4 0.00 0.00 0.00 37 1014.7
20260831234516 35 210 1.6 8.0 0.00 0.00 0.00 36 1014.8
20260831233017 35 212 4.8 12.9 0.00 0.00 0.00 35 1014.7
20260831231521 35 188 3.2 11.3 0.00 0.00 0.00 35 1014.8
20260831230009 35 198 3.2 9.7 0.00 0.00 0.00 36 1015.0
20260831224512 35 202 0.0 9.7 0.00 0.00 0.00 37 1015.1
20260831223019 35 219 3.2 11.3 0.00 0.00 0.00 38 1015.1
20260831221527 35 234 0.0 14.5 0.00 0.00 0.00 38 1015.1
20260831220027 35 135 4.8 6.4 0.00 0.00 0.00 38 1015.3
20260831214512 35 192 4.8 9.7 0.00 0.00 0.00 38 1015.5
20260831213016 35 209 4.8 8.0 0.00 0.00 0.00 39 1015.6
20260831211525 35 197 4.8 8.0 0.00 0.00 0.00 39 1015.9
20260831210028 35 251 1.6 6.4 0.00 0.00 0.00 43 1016.1
20260831204508 34 324 0.0 11.3 0.00 0.00 0.00 45 1016.4
20260831203018 33 202 0.0 6.4 0.00 0.00 0.00 44 1016.8
20260831201525 33 267 3.2 11.3 0.00 0.00 0.00 46 1017.1
20260831200032 33 179 1.6 8.0 0.00 0.00 0.00 45 1017.2
20260831194558 33 229 4.8 12.9 0.00 0.00 0.00 45 1017.4
20260831193010 33 207 0.0 6.4 0.00 0.00 0.00 50 1017.4
20260831191520 32 213 1.6 9.7 0.00 0.00 0.00 47 1017.6
20260831190025 32 202 1.6 6.4 0.00 0.00 0.00 49 1017.6
20260831184529 32 152 3.2 6.4 0.00 0.00 0.00 50 1017.9
20260831183035 31 87 1.6 4.8 0.00 0.00 0.00 51 1017.9
20260831181515 31 255 0.0 6.4 0.00 0.00 0.00 51 1017.9
20260831180026 31 101 0.0 4.8 0.00 0.00 0.00 53 1018.1
20260831174529 31 296 1.6 6.4 0.00 0.00 0.00 55 1018.2
20260831173029 30 360 1.6 6.4 0.00 0.00 0.00 55 1018.1
20260831171502 30 9 0.0 6.4 0.00 0.00 0.00 56 1018.3
20260831170005 30 327 0.0 6.4 0.00 0.00 0.00 59 1018.1
20260831164510 30 316 3.2 8.0 0.00 0.00 0.00 59 1018.1
20260831163007 30 302 0.0 8.0 0.00 0.00 0.00 56 1017.9
20260831161512 29 326 1.6 6.4 0.00 0.00 0.00 58 1017.8
20260831160003 28 201 0.0 4.8 0.00 0.00 0.00 57 1017.7
20260831154516 28 211 0.0 8.0 0.00 0.00 0.00 57 1017.6
20260831153010 27 183 4.8 9.7 0.00 0.00 0.00 58 1017.5
20260831151512 27 201 1.6 9.7 0.00 0.00 0.00 61 1017.4
20260831150016 26 199 4.8 11.3 0.00 0.00 0.00 63 1017.4
20260831144504 26 166 4.8 12.9 0.00 0.00 0.00 65 1017.5
20260831143007 25 171 6.4 11.3 0.00 0.00 0.00 67 1017.4
20260831141534 25 152 3.2 11.3 0.00 0.00 0.00 70 1017.4
20260831140027 23 164 8.0 12.9 0.00 0.00 0.00 75 1017.4
20260831134534 22 122 4.8 11.3 0.00 0.00 0.00 82 1017.2
20260831133007 22 119 3.2 12.9 0.00 0.00 0.00 85 1017.0
20260831131507 21 146 4.8 9.7 0.00 0.00 0.00 86 1017.0
20260831130010 21 142 3.2 6.4 0.00 0.00 0.00 86 1017.0
20260831124520 21 123 3.2 4.8 0.00 0.00 0.00 84 1016.8
20260831123026 21 169 0.0 9.7 0.00 0.00 0.00 83 1016.8
20260831121505 21 99 1.6 4.8 0.00 0.00 0.00 83 1016.6
20260831120010 21 86 0.0 6.4 0.00 0.00 0.00 82 1016.6
20260831114517 21 73 0.0 11.3 0.00 0.00 0.00 81 1016.4
20260831113024 21 144 3.2 12.9 0.00 0.00 0.00 80 1016.8
20260831111531 21 19 3.2 11.3 0.00 0.00 0.00 79 1016.7
20260831110017 22 139 3.2 11.3 0.00 0.00 0.00 79 1017.1
20260831104514 22 26 1.6 8.0 0.00 0.00 0.00 78 1017.3
20260831103020 22 360 1.6 6.4 0.00 0.00 0.00 77 1017.4
20260831101530 22 311 3.2 14.5 0.00 0.00 0.00 77 1017.4
20260831100032 22 35 4.8 9.7 0.00 0.00 0.00 77 1017.4
20260831094514 22 13 4.8 16.1 0.00 0.00 0.00 75 1017.4
20260831093024 22 347 8.0 12.9 0.00 0.00 0.00 74 1017.4
20260831091523 22 42 6.4 12.9 0.00 0.00 0.00 72 1017.3
20260831090028 22 9 6.4 14.5 0.00 0.00 0.00 71 1017.2
20260831084529 22 334 8.0 14.5 0.00 0.00 0.00 71 1017.1
20260831083020 22 306 9.7 17.7 0.00 0.00 0.00 76 1016.8
20260831081526 22 349 8.0 14.5 0.00 0.00 0.00 79 1016.8
20260831080027 22 226 0.0 3.2 0.00 0.00 0.00 78 1016.2
20260831074534 22 179 0.0 4.8 0.00 0.00 0.00 78 1015.7
20260831073035 22 162 3.2 8.0 0.00 0.00 0.00 77 1015.6
20260831071520 22 121 0.0 3.2 0.00 0.00 0.00 77 1015.9
20260831070035 23 116 1.6 3.2 0.00 0.00 0.00 77 1015.7
20260831064531 23 106 0.0 1.6 0.00 0.00 0.00 77 1015.7
20260831063030 23 106 0.0 3.2 0.00 0.00 0.00 76 1015.8
20260831061532 23 128 0.0 3.2 0.00 0.00 0.00 75 1015.8
20260831060029 23 128 0.0 3.2 0.00 0.00 0.00 73 1015.8
20260831054530 24 106 0.0 3.2 0.00 0.00 0.00 72 1015.9
20260831053034 25 125 0.0 3.2 0.00 0.00 0.00 71 1016.0
20260831051538 25 30 0.0 4.8 0.00 0.00 0.00 70 1016.0
20260831050037 25 5 0.0 6.4 0.00 0.00 0.00 70 1016.0
20260831044507 25 350 3.2 12.9 0.00 0.00 0.00 69 1016.1